Time,TemperatureF,DewpointF,PressureIn,WindDirection,WindDirectionDegrees,WindSpeedMPH,WindSpeedGustMPH,Humidity,HourlyPrecipIn,Conditions,Clouds,dailyrainin,SolarRadiationWatts/m^2,SoftwareType,DateUTC
2013-06-01 00:06:00,52.5,43.0,29.98,North,360,0.0,1.0,69,0.00,,,0.00,0,weatherlink.com 1.10,2013-06-01 07:06:00,
2013-06-01 00:21:00,51.8,42.0,29.98,NNE,32,3.0,6.0,70,0.00,,,0.00,0,weatherlink.com 1.10,2013-06-01 07:21:00,
2013-06-01 00:36:00,52.1,43.0,29.98,NE,38,4.0,6.0,70,0.00,,,0.00,0,weatherlink.com 1.10,2013-06-01 07:36:00,
2013-06-01 00:51:00,53.1,43.0,29.98,NNW,348,0.0,4.0,69,0.00,,,0.00,0,weatherlink.com 1.10,2013-06-01 07:51:00,
2013-06-01 01:06:00,53.1,43.0,29.97,NW,309,2.0,3.0,69,0.00,,,0.00,0,weatherlink.com 1.10,2013-06-01 08:06:00,
2013-06-01 01:21:00,52.9,43.0,29.97,North,355,0.0,4.0,69,0.00,,,0.00,0,weatherlink.com 1.10,2013-06-01 08:21:00,
2013-06-01 01:36:00,52.9,43.0,29.97,North,5,1.0,3.0,69,0.00,,,0.00,0,weatherlink.com 1.10,2013-06-01 08:36:00,
2013-06-01 01:51:00,54.4,44.0,29.97,North,350,5.0,6.0,67,0.00,,,0.00,0,weatherlink.com 1.10,2013-06-01 08:51:00,
2013-06-01 02:06:00,54.8,44.0,29.96,NW,319,3.0,11.0,66,0.00,,,0.00,0,weatherlink.com 1.10,2013-06-01 09:06:00,
2013-06-01 02:21:00,54.5,43.0,29.96,North,5,4.0,8.0,66,0.00,,,0.00,0,weatherlink.com 1.10,2013-06-01 09:21:00,
2013-06-01 02:36:00,53.9,43.0,29.96,West,267,2.0,6.0,66,0.00,,,0.00,0,weatherlink.com 1.10,2013-06-01 09:36:00,
2013-06-01 02:51:00,52.4,42.0,29.95,West,279,0.0,4.0,68,0.00,,,0.00,0,weatherlink.com 1.10,2013-06-01 09:51:00,
2013-06-01 03:06:00,51.3,41.0,29.95,West,279,1.0,1.0,68,0.00,,,0.00,0,weatherlink.com 1.10,2013-06-01 10:06:00,
2013-06-01 03:21:00,52.9,43.0,29.94,NNW,332,2.0,6.0,68,0.00,,,0.00,0,weatherlink.com 1.10,2013-06-01 10:21:00,
2013-06-01 03:36:00,54.9,43.0,29.93,North,355,0.0,6.0,65,0.00,,,0.00,0,weatherlink.com 1.10,2013-06-01 10:36:00,
2013-06-01 03:51:00,52.1,41.0,29.94,NW,307,3.0,3.0,67,0.00,,,0.00,0,weatherlink.com 1.10,2013-06-01 10:51:00,
2013-06-01 04:06:00,50.6,41.0,29.93,North,355,0.0,3.0,69,0.00,,,0.00,0,weatherlink.com 1.10,2013-06-01 11:06:00,
2013-06-01 04:21:00,50.5,41.0,29.93,North,355,0.0,2.0,69,0.00,,,0.00,0,weatherlink.com 1.10,2013-06-01 11:21:00,
2013-06-01 04:37:00,49.5,40.0,29.93,NW,311,0.0,2.0,70,0.00,,,0.00,0,weatherlink.com 1.10,2013-06-01 11:37:00,
2013-06-01 04:52:00,49.0,40.0,29.93,NW,318,2.0,3.0,70,0.00,,,0.00,0,weatherlink.com 1.10,2013-06-01 11:52:00,
2013-06-01 05:07:00,49.1,40.0,29.93,NNE,28,0.0,4.0,71,0.00,,,0.00,0,weatherlink.com 1.10,2013-06-01 12:07:00,
2013-06-01 05:22:00,48.4,39.0,29.93,NNE,28,1.0,2.0,71,0.00,,,0.00,0,weatherlink.com 1.10,2013-06-01 12:22:00,
2013-06-01 05:37:00,48.5,39.0,29.93,NNE,28,2.0,6.0,71,0.00,,,0.00,0,weatherlink.com 1.10,2013-06-01 12:37:00,
2013-06-01 05:52:00,48.8,40.0,29.93,NNE,24,2.0,2.0,72,0.00,,,0.00,5,weatherlink.com 1.10,2013-06-01 12:52:00,
2013-06-01 06:07:00,48.5,40.0,29.93,NNE,24,0.0,3.0,72,0.00,,,0.00,12,weatherlink.com 1.10,2013-06-01 13:07:00,
2013-06-01 06:22:00,48.5,39.0,29.93,NNE,24,0.0,2.0,71,0.00,,,0.00,18,weatherlink.com 1.10,2013-06-01 13:22:00,
2013-06-01 06:37:00,49.9,41.0,29.93,NNE,12,1.0,5.0,71,0.00,,,0.00,25,weatherlink.com 1.10,2013-06-01 13:37:00,
2013-06-01 06:52:00,50.4,41.0,29.94,WNW,303,2.0,3.0,70,0.00,,,0.00,116,weatherlink.com 1.10,2013-06-01 13:52:00,
2013-06-01 07:07:00,52.2,43.0,29.93,NW,309,2.0,3.0,70,0.00,,,0.00,178,weatherlink.com 1.10,2013-06-01 14:07:00,
2013-06-01 07:22:00,52.8,43.0,29.93,WNW,303,0.0,1.0,70,0.00,,,0.00,236,weatherlink.com 1.10,2013-06-01 14:22:00,
2013-06-01 07:37:00,54.0,44.0,29.93,WSW,244,0.0,5.0,69,0.00,,,0.00,290,weatherlink.com 1.10,2013-06-01 14:37:00,
2013-06-01 07:52:00,55.2,45.0,29.93,WNW,284,1.0,2.0,69,0.00,,,0.00,345,weatherlink.com 1.10,2013-06-01 14:52:00,
2013-06-01 08:07:00,55.2,45.0,29.93,WSW,242,2.0,7.0,69,0.00,,,0.00,394,weatherlink.com 1.10,2013-06-01 15:07:00,
2013-06-01 08:22:00,55.0,45.0,29.94,WSW,255,1.0,9.0,69,0.00,,,0.00,441,weatherlink.com 1.10,2013-06-01 15:22:00,
2013-06-01 08:37:00,55.3,45.0,29.94,West,276,2.0,8.0,69,0.00,,,0.00,492,weatherlink.com 1.10,2013-06-01 15:37:00,
2013-06-01 08:52:00,54.3,44.0,29.94,WSW,242,4.0,12.0,69,0.00,,,0.00,545,weatherlink.com 1.10,2013-06-01 15:52:00,
2013-06-01 09:07:00,55.2,45.0,29.94,West,259,3.0,9.0,69,0.00,,,0.00,591,weatherlink.com 1.10,2013-06-01 16:07:00,
2013-06-01 09:23:00,55.8,46.0,29.94,WSW,257,9.0,10.0,69,0.00,,,0.00,647,weatherlink.com 1.10,2013-06-01 16:23:00,
2013-06-01 09:38:00,56.0,46.0,29.94,West,275,7.0,11.0,68,0.00,,,0.00,682,weatherlink.com 1.10,2013-06-01 16:38:00,
2013-06-01 09:53:00,56.4,46.0,29.93,West,264,2.0,11.0,69,0.00,,,0.00,726,weatherlink.com 1.10,2013-06-01 16:53:00,
2013-06-01 10:08:00,57.2,47.0,29.93,WNW,292,6.0,15.0,69,0.00,,,0.00,765,weatherlink.com 1.10,2013-06-01 17:08:00,
2013-06-01 10:23:00,57.5,47.0,29.93,WSW,237,7.0,12.0,68,0.00,,,0.00,819,weatherlink.com 1.10,2013-06-01 17:23:00,
2013-06-01 10:38:00,57.3,47.0,29.92,SW,227,2.0,13.0,68,0.00,,,0.00,942,weatherlink.com 1.10,2013-06-01 17:38:00,
2013-06-01 10:53:00,58.1,48.0,29.92,WSW,253,4.0,10.0,68,0.00,,,0.00,464,weatherlink.com 1.10,2013-06-01 17:53:00,
2013-06-01 11:08:00,58.0,47.0,29.92,WSW,240,6.0,9.0,68,0.00,,,0.00,914,weatherlink.com 1.10,2013-06-01 18:08:00,
2013-06-01 11:23:00,60.1,49.0,29.92,West,279,3.0,13.0,67,0.00,,,0.00,886,weatherlink.com 1.10,2013-06-01 18:23:00,
2013-06-01 11:38:00,62.3,50.0,29.92,SW,232,3.0,12.0,64,0.00,,,0.00,693,weatherlink.com 1.10,2013-06-01 18:38:00,
2013-06-01 11:53:00,61.4,49.0,29.91,West,277,11.0,13.0,65,0.00,,,0.00,490,weatherlink.com 1.10,2013-06-01 18:53:00,
2013-06-01 12:08:00,60.8,49.0,29.91,WNW,287,4.0,15.0,66,0.00,,,0.00,944,weatherlink.com 1.10,2013-06-01 19:08:00,
2013-06-01 12:23:00,63.2,50.0,29.91,WNW,295,6.0,13.0,63,0.00,,,0.00,905,weatherlink.com 1.10,2013-06-01 19:23:00,
2013-06-01 12:38:00,62.5,50.0,29.91,WSW,245,7.0,13.0,63,0.00,,,0.00,642,weatherlink.com 1.10,2013-06-01 19:38:00,
2013-06-01 12:53:00,61.4,49.0,29.91,SSW,213,4.0,15.0,64,0.00,,,0.00,872,weatherlink.com 1.10,2013-06-01 19:53:00,
2013-06-01 13:08:00,60.6,48.0,29.90,WSW,244,5.0,15.0,64,0.00,,,0.00,650,weatherlink.com 1.10,2013-06-01 20:08:00,
2013-06-01 13:23:00,61.7,49.0,29.90,WSW,239,5.0,15.0,64,0.00,,,0.00,925,weatherlink.com 1.10,2013-06-01 20:23:00,
2013-06-01 13:38:00,61.8,49.0,29.90,West,275,9.0,13.0,63,0.00,,,0.00,663,weatherlink.com 1.10,2013-06-01 20:38:00,
2013-06-01 13:53:00,62.3,49.0,29.89,NW,314,4.0,9.0,62,0.00,,,0.00,392,weatherlink.com 1.10,2013-06-01 20:53:00,
2013-06-01 14:08:00,64.1,50.0,29.89,NNW,329,8.0,11.0,60,0.00,,,0.00,805,weatherlink.com 1.10,2013-06-01 21:08:00,
2013-06-01 14:23:00,66.3,51.0,29.88,WSW,256,9.0,13.0,59,0.00,,,0.00,1042,weatherlink.com 1.10,2013-06-01 21:23:00,
2013-06-01 14:38:00,67.6,51.0,29.88,West,259,3.0,16.0,56,0.00,,,0.00,1053,weatherlink.com 1.10,2013-06-01 21:38:00,
2013-06-01 14:53:00,68.9,52.0,29.87,WSW,244,11.0,18.0,55,0.00,,,0.00,969,weatherlink.com 1.10,2013-06-01 21:53:00,
2013-06-01 15:09:00,70.1,52.0,29.86,WNW,296,7.0,12.0,52,0.00,,,0.00,909,weatherlink.com 1.10,2013-06-01 22:09:00,
2013-06-01 15:24:00,71.2,52.0,29.86,West,281,4.0,13.0,51,0.00,,,0.00,984,weatherlink.com 1.10,2013-06-01 22:24:00,
2013-06-01 15:39:00,70.9,50.0,29.87,WNW,286,10.0,16.0,48,0.00,,,0.00,287,weatherlink.com 1.10,2013-06-01 22:39:00,
2013-06-01 15:54:00,68.6,49.0,29.87,WSW,248,11.0,13.0,50,0.00,,,0.00,343,weatherlink.com 1.10,2013-06-01 22:54:00,
2013-06-01 16:09:00,69.0,49.0,29.87,WNW,291,7.0,14.0,49,0.00,,,0.00,341,weatherlink.com 1.10,2013-06-01 23:09:00,
2013-06-01 16:24:00,68.9,49.0,29.87,West,281,4.0,13.0,49,0.00,,,0.00,392,weatherlink.com 1.10,2013-06-01 23:24:00,
2013-06-01 16:39:00,68.1,49.0,29.86,WNW,286,4.0,17.0,51,0.00,,,0.00,366,weatherlink.com 1.10,2013-06-01 23:39:00,
2013-06-01 16:54:00,68.8,50.0,29.87,WNW,296,2.0,10.0,51,0.00,,,0.00,675,weatherlink.com 1.10,2013-06-01 23:54:00,
2013-06-01 17:09:00,67.5,48.0,29.86,WNW,282,3.0,14.0,50,0.00,,,0.00,434,weatherlink.com 1.10,2013-06-02 00:09:00,
2013-06-01 17:24:00,65.2,48.0,29.86,NW,309,5.0,13.0,55,0.00,,,0.00,659,weatherlink.com 1.10,2013-06-02 00:24:00,
2013-06-01 17:39:00,64.8,48.0,29.86,NW,317,5.0,16.0,55,0.00,,,0.00,603,weatherlink.com 1.10,2013-06-02 00:39:00,
2013-06-01 17:54:00,63.8,48.0,29.86,NW,323,5.0,12.0,57,0.00,,,0.00,501,weatherlink.com 1.10,2013-06-02 00:54:00,
2013-06-01 18:09:00,64.1,48.0,29.85,West,281,4.0,15.0,57,0.00,,,0.00,445,weatherlink.com 1.10,2013-06-02 01:09:00,
2013-06-01 18:24:00,62.8,48.0,29.84,West,269,11.0,13.0,58,0.00,,,0.00,380,weatherlink.com 1.10,2013-06-02 01:24:00,
2013-06-01 18:39:00,63.9,48.0,29.85,West,272,1.0,12.0,57,0.00,,,0.00,320,weatherlink.com 1.10,2013-06-02 01:39:00,
2013-06-01 18:54:00,62.0,47.0,29.85,West,269,5.0,12.0,59,0.00,,,0.00,265,weatherlink.com 1.10,2013-06-02 01:54:00,
2013-06-01 19:09:00,60.7,47.0,29.85,West,270,6.0,12.0,61,0.00,,,0.00,214,weatherlink.com 1.10,2013-06-02 02:09:00,
2013-06-01 19:24:00,59.5,46.0,29.85,West,265,7.0,11.0,62,0.00,,,0.00,158,weatherlink.com 1.10,2013-06-02 02:24:00,
2013-06-01 19:39:00,59.2,46.0,29.85,WSW,254,4.0,11.0,63,0.00,,,0.00,104,weatherlink.com 1.10,2013-06-02 02:39:00,
2013-06-01 19:54:00,58.3,46.0,29.85,West,278,4.0,14.0,64,0.00,,,0.00,56,weatherlink.com 1.10,2013-06-02 02:54:00,
2013-06-01 20:09:00,57.4,46.0,29.85,WNW,288,11.0,12.0,65,0.00,,,0.00,19,weatherlink.com 1.10,2013-06-02 03:09:00,
2013-06-01 20:24:00,56.9,46.0,29.85,West,268,4.0,10.0,66,0.00,,,0.00,11,weatherlink.com 1.10,2013-06-02 03:24:00,
2013-06-01 20:39:00,56.7,45.0,29.85,West,268,6.0,8.0,66,0.00,,,0.00,0,weatherlink.com 1.10,2013-06-02 03:39:00,
2013-06-01 20:54:00,56.6,46.0,29.85,NW,312,0.0,9.0,67,0.00,,,0.00,0,weatherlink.com 1.10,2013-06-02 03:54:00,
2013-06-01 21:09:00,56.1,45.0,29.85,North,355,3.0,6.0,67,0.00,,,0.00,0,weatherlink.com 1.10,2013-06-02 04:09:00,
2013-06-01 21:24:00,55.7,45.0,29.85,WNW,285,3.0,5.0,67,0.00,,,0.00,0,weatherlink.com 1.10,2013-06-02 04:24:00,
2013-06-01 21:39:00,55.2,44.0,29.86,East,95,3.0,5.0,67,0.00,,,0.00,0,weatherlink.com 1.10,2013-06-02 04:39:00,
2013-06-01 21:54:00,54.4,44.0,29.86,East,95,1.0,3.0,68,0.00,,,0.00,0,weatherlink.com 1.10,2013-06-02 04:54:00,
2013-06-01 22:09:00,53.5,43.0,29.86,East,95,0.0,3.0,68,0.00,,,0.00,0,weatherlink.com 1.10,2013-06-02 05:09:00,
2013-06-01 22:24:00,53.0,43.0,29.86,East,95,0.0,2.0,69,0.00,,,0.00,0,weatherlink.com 1.10,2013-06-02 05:24:00,
2013-06-01 22:39:00,52.4,42.0,29.85,NE,51,2.0,5.0,69,0.00,,,0.00,0,weatherlink.com 1.10,2013-06-02 05:39:00,
2013-06-01 22:54:00,52.3,42.0,29.85,NE,51,0.0,3.0,69,0.00,,,0.00,0,weatherlink.com 1.10,2013-06-02 05:54:00,
2013-06-01 23:09:00,52.1,43.0,29.85,ENE,64,0.0,4.0,70,0.00,,,0.00,0,weatherlink.com 1.10,2013-06-02 06:09:00,
2013-06-01 23:24:00,52.8,43.0,29.85,NNW,338,0.0,3.0,70,0.00,,,0.00,0,weatherlink.com 1.10,2013-06-02 06:24:00,
2013-06-01 23:39:00,53.9,44.0,29.84,NW,320,0.0,4.0,70,0.00,,,0.00,0,weatherlink.com 1.10,2013-06-02 06:39:00,
2013-06-01 23:54:00,54.8,45.0,29.84,North,9,2.0,5.0,69,0.00,,,0.00,0,weatherlink.com 1.10,2013-06-02 06:54:00,